Location: Middle Street
(51.7167°N, 0.0333°E)
Time: 00:50:33
(UTC+00:00)

Cosmos 1689 Rocket - Pass Details

Date: 20 January 2021
Orbit: 353 x 367 km, 97.5° (Epoch: 28 February)

Event Time Altitude Azimuth Distance (km) Brightness Sun altitude
Exits shadow 18:20:40 14° 157° (SSE) 1,129 4.3 -17.0°
Drops below altitude 10° 18:21:12 10° 163° (SSE) 1,334 4.7 -17.1°
Sets 18:23:14 0° 174° (S) 2,170 5.9 -17.4°
